User: anonymous   Login
Location: Cincinnati Observatory Center
(39.1389°N, 84.4225°W)
Time: 03:28:19
(UTC-05:00)
Language:

COSMOS 2428 - Orbit

View from above orbital plane
View from above orbital plane
View from above satellite
View from above satellite

Ground track
Ground track

The orbit data is extracted from the following two-line orbital elements,

1 31792U 07029A   17022.86154369 -.00000180  00000-0 -71733-4 0  9990
2 31792  70.9165 357.2409 0006992 159.8189 200.3209 14.12261424493558
Epoch (UTC): 22 January 2017 20:40:37
Eccentricity: 0.0006992
inclination: 70.9165°
perigee height: 846 km
apogee height: 857 km
right ascension of ascending node: 357.2409°
argument of perigee: 159.8189°
revolutions per day: 14.12261424
mean anomaly at epoch: 200.3209°
orbit number at epoch: 49355

The dashed part of the orbit path shows where the satellite is in the earth's shadow,  

DLR